STARLINK-34035, 63937

Orbit data source: Space-Track

STARLINK-34035, 63937 is a payload satellite owned by SpaceX/Seattle (US) in LEO that was launched on Tue, 13 May 2025 UTC via an FALCON 9 launch vehicle from the Air Force Western Test Range (AFWTR). Payload-class satellites include a variety of spacecraft equipped with specific instruments for various scientific and technological missions. These include communications satellites like Starlink; space stations such as the ISS; scientific satellites like the Hubble; Earth observation satellites from companies like Planet Labs, Umbra, and HawkEye 360; GPS; miniature CubeSats for education and research; and military/defense satellites.

Loading next visibility...
Identifier
63937, 2025-098M
Orbit
LEO
Country
Flag of USUS
Related business
Manufacturer
SpaceX/Seattle
Mission
Operational Commercial Communications
Bus & Motor
STARLINK V2MO, Unknown motor
Mass
575 kg wet, ~530 kg dry
Launch date (UTC)
2025-05-13 (7 months ago)
Launch vehicle
FALCON 9
Launch site
Air Force Western Test Range (AFWTR)
Object type
Payload
Rocket body
Debris
Shape & HBR
Box + 2 Pan, 17.7 m
Radar Cross Section
36.964 m², Large (>1 m²)

Expand to show TLE details & history
Last TLE update: 10 hours ago

TLE from 10 hours ago
0 STARLINK-34035
1 63937U 25098M   25349.77992265  .00002031  00000-0  17793-3 0  9998
2 63937  70.0007 126.0219 0003141 269.8800  90.1999 14.98334052 33986
Epoch: 2025-12-15T18:43Z
TLE epoch observation values (Epoch: 2025-12-15T18:43:05.316Z)
Latitude
-0.00007°
Longitude
120.57614°
Altitude
574.476 km
Speed
7.574 km/s
True Right ascension
08h 24m 05s
True Declination
0° 00' 00"
Sunlit
Object was in full shadow at epoch
Visualization orbit readout
Latitude
Unknown
Longitude
Unknown
Altitude
Unknown
Speed
Unknown
Apparent Right ascension
Unknown
Apparent Declination
Unknown
Sunlit
N/A
Visualization observer readout
Local Sidereal Time
03:12:45
Azimuth
Unknown
Elevation
Unknown
Doppler factor
Unknown
Orbital elements
Apogee altitude
572.174 km
Perigee altitude
567.809 km
Semi-major axis
6,948.129 km
Eccentricity
0.00031
Inclination
70.0007°
RAAN
126.0219°
Arg. of periapsis
269.88°
True anomaly
90.23589°
Mean anomaly
90.1999°
Eccentric anomaly
90.2179°
Mean motion
3.7475 °/min
Orbital period
96.06 mins
BSTAR
0.00017793
Loading maneuver chart data...
Computing Atmospheric mass density...
Loading historical data...
Loading historical data...
Loading historical data...
Loading historical data...
Loading historical data...
Loading historical data...
Loading historical data...

Documentation

Showing up to 5 results
|